Tracking 19644 objects as of 24-Apr-2019
HD Live streaming from Space Station
objects crossing your sky now

THORAD AGENA D DEB

Track THORAD AGENA D DEB now!
10-day predictions


NORAD ID: 4653
Int'l Code: 1970-025AM
Perigee: 783.7 km
Apogee: 826.1 km
Inclination: 100.0 °
Period: 100.8 minutes
Semi major axis: 7175 km
RCS: 0.0427 m2 (small)
Launch date: April 8, 1970
Source: United States (US)
Launch site: AIR FORCE WESTERN TEST RANGE (AFWTR)

Note: This is SATELLITE DEBRIS
aabbcc
Your satellite tracking list
Your tracking list is empty




NASA's NSSDC Master Catalog

Two Line Element Set (TLE):
1  4653U 70025AM  19113.51771831 +.00000840 +00000-0 +35828-3 0  9991
2  4653 100.0242 322.3898 0029555 162.2856 197.9358 14.28200535491714
Source of the keplerian elements: AFSPC